TimeEDT,TemperatureF,Dew PointF,Humidity,Sea Level PressureIn,VisibilityMPH,Wind Direction,Wind SpeedMPH,Gust SpeedMPH,PrecipitationIn,Events,Conditions,WindDirDegrees,DateUTC
12:53 AM,82.9,73.9,74,29.83,7.0,Variable,3.5,-,N/A,,Clear,0,2013-07-20 04:53:00
1:53 AM,82.9,70.0,65,29.84,9.0,WSW,6.9,-,N/A,,Clear,240,2013-07-20 05:53:00
2:53 AM,81.0,69.1,67,29.81,9.0,Variable,3.5,-,N/A,,Clear,0,2013-07-20 06:53:00
3:53 AM,80.1,70.0,71,29.80,8.0,Calm,Calm,-,N/A,,Clear,0,2013-07-20 07:53:00
4:53 AM,78.1,69.1,74,29.79,8.0,SSW,4.6,-,N/A,,Clear,210,2013-07-20 08:53:00
5:53 AM,77.0,69.1,76,29.81,6.0,SW,4.6,-,N/A,,Haze,230,2013-07-20 09:53:00
6:53 AM,77.0,69.1,76,29.82,7.0,Variable,3.5,-,N/A,,Clear,0,2013-07-20 10:53:00
7:53 AM,78.1,70.0,76,29.83,7.0,Variable,3.5,-,N/A,,Clear,0,2013-07-20 11:53:00
8:53 AM,81.0,70.0,69,29.82,8.0,SW,4.6,-,N/A,,Clear,230,2013-07-20 12:53:00
9:53 AM,84.0,70.0,63,29.81,8.0,Variable,5.8,-,N/A,,Clear,0,2013-07-20 13:53:00
10:53 AM,87.1,69.1,55,29.81,9.0,West,8.1,-,N/A,,Clear,270,2013-07-20 14:53:00
11:53 AM,87.1,70.0,57,29.78,9.0,Variable,6.9,-,N/A,,Clear,0,2013-07-20 15:53:00
12:53 PM,87.1,71.1,59,29.77,9.0,SW,9.2,-,N/A,,Clear,230,2013-07-20 16:53:00
1:53 PM,90.0,71.1,54,29.77,9.0,Variable,5.8,21.9,N/A,,Clear,0,2013-07-20 17:53:00
2:53 PM,91.0,72.0,53,29.76,8.0,WSW,8.1,-,N/A,,Clear,240,2013-07-20 18:53:00
3:53 PM,90.0,70.0,52,29.75,9.0,WSW,9.2,16.1,N/A,,Partly Cloudy,240,2013-07-20 19:53:00
4:53 PM,93.0,68.0,44,29.75,10.0,NW,11.5,17.3,N/A,,Partly Cloudy,310,2013-07-20 20:53:00
5:53 PM,90.0,66.0,45,29.76,10.0,WNW,8.1,-,N/A,,Partly Cloudy,290,2013-07-20 21:53:00
6:53 PM,88.0,63.0,43,29.77,10.0,WNW,9.2,-,N/A,,Clear,290,2013-07-20 22:53:00
7:53 PM,86.0,64.0,48,29.79,10.0,Calm,Calm,-,N/A,,Scattered Clouds,0,2013-07-20 23:53:00
8:53 PM,84.9,64.9,51,29.81,10.0,Calm,Calm,-,N/A,,Overcast,0,2013-07-21 00:53:00
9:53 PM,82.0,68.0,62,29.83,10.0,SSW,3.5,-,N/A,,Mostly Cloudy,210,2013-07-21 01:53:00
10:53 PM,81.0,68.0,65,29.84,10.0,NW,4.6,-,N/A,,Scattered Clouds,310,2013-07-21 02:53:00
11:53 PM,80.1,69.1,69,29.86,10.0,Calm,Calm,-,N/A,,Overcast,0,2013-07-21 03:53:00